Weather History for KPBI - February, 2015

Change the Weather History Date:

Wednesday, February 18, 2015

  Actual Average Record
Temperature  
Mean Temperature 59 °F 68 °F  
Max Temperature 68 °F 77 °F 90 °F (1942)
Min Temperature 50 °F 60 °F 37 °F (1977)
Degree Days  
Heating Degree Days 6 2  
Month to date heating degree days 27 36  
Since 1 July heating degree days 97 193  
Cooling Degree Days 0 5  
Month to date cooling degree days 47 78  
Year to date cooling degree days 211 186  
Growing Degree Days 10 (Base 50)    
Moisture  
Dew Point 51 °F    
Average Humidity 58    
Maximum Humidity 84    
Minimum Humidity 32    
Precipitation  
Precipitation 0.11 in 0.09 in 1.60 in (1920)
Month to date precipitation 1.69 1.73  
Year to date precipitation 2.74 4.86  
Snow  
Snow 0.00 in - - ()
Month to date snowfall 0.0  
Since 1 July snowfall 0.0  
Snow Depth 0.00 in    
Sea Level Pressure  
Sea Level Pressure 30.02 in    
Wind  
Wind Speed 10 mph (NW)    
Max Wind Speed 23 mph    
Max Gust Speed 28 mph    
Visibility 9 miles    
Events Rain , Thunderstorm    
T = Trace of Precipitation, MM = Missing Value Source: NWS Daily Summary

Daily Weather History Graph

Daily Weather History Graph

Search for Another Location

Airport or City:

Trip Planner

Search our weather history database for the weather conditions in past years. The results will help you decide how hot, cold, wet, or windy it might be!

Date:

Astronomy

Feb. 18, 2015 Rise Set
Actual Time 6:54 AM EST 6:14 PM EST
Civil Twilight 6:30 AM EST 6:38 PM EST
Nautical Twilight 6:03 AM EST 7:05 PM EST
Astronomical Twilight 5:36 AM EST 7:32 PM EST
Moon 6:23 AM EST (2/18) 6:10 PM EST (2/18)
Length of Visible Light 12h 07m
Length of Day
11h 20m
Waning Crescent, 0% of the Moon is Illuminated
Feb 18
Waning Crescent
Feb 18
New
Feb 25
First Quarter
Mar 5
Full
Mar 13
Last Quarter

Hourly Weather History & Observations

Time (EST) Temp. Dew Point Humidity Pressure Visibility Wind Dir Wind Speed Gust Speed Precip Events Conditions
12:53 AM 64.9 °F 59.0 °F 81% 29.92 in 10.0 mi Calm Calm - N/A   Mostly Cloudy
1:53 AM 64.9 °F 59.0 °F 81% 29.91 in 10.0 mi NW 6.9 mph - N/A   Mostly Cloudy
2:53 AM 64.9 °F 59.0 °F 81% 29.91 in 10.0 mi Calm Calm - N/A   Mostly Cloudy
3:36 AM 64.9 °F 59.0 °F 81% 29.92 in 10.0 mi Calm Calm - N/A   Overcast
3:53 AM 64.9 °F 59.0 °F 81% 29.92 in 10.0 mi WNW 3.5 mph - N/A   Overcast
4:53 AM 64.9 °F 59.0 °F 81% 29.91 in 10.0 mi Calm Calm - N/A   Overcast
5:53 AM 64.9 °F 57.9 °F 78% 29.95 in 10.0 mi West 5.8 mph - N/A   Overcast
6:53 AM 64.0 °F 57.9 °F 80% 29.96 in 7.0 mi WNW 17.3 mph - 0.00 in Rain Light Rain
7:15 AM 63.0 °F 59.0 °F 87% 29.97 in 7.0 mi WNW 12.7 mph - 0.00 in Rain , Thunderstorm Light Thunderstorms and Rain
7:53 AM 63.0 °F 60.1 °F 90% 29.99 in 10.0 mi WNW 10.4 mph - 0.03 in Rain , Thunderstorm Light Thunderstorms and Rain
8:15 AM 63.0 °F 61.0 °F 93% 30.01 in 10.0 mi WNW 8.1 mph - 0.00 in Rain , Thunderstorm Light Thunderstorms and Rain
8:33 AM 63.0 °F 61.0 °F 93% 30.00 in 1.5 mi NW 10.4 mph - 0.05 in Rain , Thunderstorm Heavy Thunderstorms and Rain
8:41 AM 63.0 °F 61.0 °F 93% 30.01 in 3.0 mi NW 8.1 mph - 0.07 in Rain , Thunderstorm Heavy Thunderstorms and Rain
8:53 AM 63.0 °F 60.1 °F 90% 30.03 in 6.0 mi West 9.2 mph - 0.08 in Rain , Thunderstorm Light Thunderstorms and Rain
9:07 AM 63.0 °F 61.0 °F 93% 30.04 in 10.0 mi West 8.1 mph - 0.00 in Rain Light Rain
9:28 AM 57.9 °F 55.9 °F 93% 30.05 in 10.0 mi NW 19.6 mph - 0.00 in Rain Light Rain
9:53 AM 57.9 °F 55.0 °F 90% 30.05 in 10.0 mi NNW 18.4 mph - 0.00 in   Overcast
9:58 AM 57.9 °F 55.0 °F 90% 30.05 in 10.0 mi NW 15.0 mph - N/A   Overcast
10:05 AM 59.0 °F 55.0 °F 87% 30.05 in 10.0 mi NNW 16.1 mph - N/A   Overcast
10:30 AM 59.0 °F 55.9 °F 90% 30.06 in 10.0 mi NW 16.1 mph - N/A   Overcast
10:53 AM 61.0 °F 55.0 °F 81% 30.06 in 10.0 mi NW 13.8 mph - N/A   Overcast
11:22 AM 62.1 °F 54.0 °F 75% 30.05 in 10.0 mi NW 13.8 mph - N/A   Overcast
11:53 AM 61.0 °F 51.1 °F 70% 30.05 in 10.0 mi NW 17.3 mph - N/A   Overcast
12:05 PM 61.0 °F 51.1 °F 70% 30.05 in 10.0 mi NW 12.7 mph - N/A   Mostly Cloudy
12:53 PM 63.0 °F 46.9 °F 56% 30.04 in 10.0 mi NNW 13.8 mph - N/A   Mostly Cloudy
1:53 PM 66.9 °F 42.1 °F 40% 30.02 in 10.0 mi NW 12.7 mph - N/A   Mostly Cloudy
2:53 PM 66.9 °F 39.9 °F 37% 30.01 in 10.0 mi North 16.1 mph 19.6 mph N/A   Scattered Clouds
3:53 PM 66.9 °F 39.9 °F 37% 30.01 in 10.0 mi NW 12.7 mph - N/A   Partly Cloudy
4:53 PM 66.0 °F 36.0 °F 33% 30.02 in 10.0 mi NW 12.7 mph - N/A   Partly Cloudy
5:53 PM 62.1 °F 32.0 °F 32% 30.04 in 10.0 mi WNW 13.8 mph - N/A   Partly Cloudy
6:53 PM 55.9 °F 37.0 °F 49% 30.06 in 10.0 mi WNW 9.2 mph - N/A   Clear
7:53 PM 53.1 °F 37.0 °F 55% 30.09 in 10.0 mi WNW 6.9 mph - N/A   Clear
8:53 PM 53.1 °F 37.0 °F 55% 30.12 in 10.0 mi NW 8.1 mph - N/A   Clear
9:53 PM 53.1 °F 34.0 °F 48% 30.14 in 10.0 mi NW 12.7 mph - N/A   Clear
10:53 PM 51.1 °F 34.0 °F 52% 30.16 in 10.0 mi NW 16.1 mph - N/A   Clear
11:53 PM 50.0 °F 34.0 °F 54% 30.15 in 10.0 mi NW 10.4 mph - N/A   Clear